Weather History for Salt Lake City, UT

Change the Weather History Date:

Saturday, January 19, 2013

  Actual Average Record
Temperature  
Mean Temperature 13 °F 30 °F  
Max Temperature 21 °F 37 °F 56 °F (1909)
Min Temperature 4 °F 22 °F -15 °F (1963)
Degree Days  
Heating Degree Days 52 36  
Month to date heating degree days 917 684  
Since 1 July heating degree days 2732 2978  
Cooling Degree Days 0 0  
Month to date cooling degree days 0 0  
Year to date cooling degree days 0 0  
Moisture  
Dew Point 8 °F    
Average Humidity 80    
Maximum Humidity 92    
Minimum Humidity 68    
Precipitation  
Precipitation T in 0.04 in 0.63 in (1906)
Month to date precipitation 0.59 0.79  
Year to date precipitation 0.59 0.79  
Snow  
Snow T in 0.40 in 7.50 in (1973)
Month to date snowfall 10.5 8.1  
Since 1 July snowfall 39.1 30.3  
Snow Depth 4.00 in    
Sea Level Pressure  
Sea Level Pressure 30.61 in    
Wind  
Wind Speed 4 mph (North)    
Max Wind Speed 9 mph    
Max Gust Speed 11 mph    
Visibility 2 miles    
Events Snow    
T = Trace of Precipitation, MM = Missing Value Source: NWS Daily Summary

Daily Weather History Graph

Daily Weather History Graph

Search for Another Location

Airport:

Trip Planner

Search our weather history database for the weather conditions in past years. The results will help you decide how hot, cold, wet, or windy it might be!

Date:

Astronomy

Jan. 19, 2013 Rise Set
Actual Time 7:47 AM MST 5:30 PM MST
Civil Twilight 7:17 AM MST 5:59 PM MST
Nautical Twilight 6:44 AM MST 6:33 PM MST
Astronomical Twilight 6:11 AM MST 7:06 PM MST
Moon 11:58 AM MST (1/19) 1:25 AM MST (1/19)
Length of Visible Light 10h 41m
Length of Day
9h 42m
First Quarter, 58% of the Moon is Illuminated
Jan 19
First Quarter
Jan 26
Full
Feb 3
Last Quarter
Feb 10
New
Feb 17
First Quarter

Hourly Weather History & Observations

Time (MST) Temp. Windchill Dew Point Humidity Pressure Visibility Wind Dir Wind Speed Gust Speed Precip Events Conditions
12:53 AM 5.0 °F - 1.0 °F 84% 30.67 in 3.0 mi Calm Calm - N/A   Mostly Cloudy
1:01 AM 6.1 °F -0.9 °F 3.0 °F 87% 30.50 in 3.0 mi SW 3.5 mph - N/A   Overcast
1:53 AM 9.0 °F - 5.0 °F 84% 30.66 in 3.0 mi Calm Calm - N/A   Overcast
2:00 AM 9.0 °F - 3.9 °F 80% 30.51 in 2.0 mi Calm Calm - N/A   Overcast
2:08 AM 9.0 °F - 6.1 °F 88% 30.51 in 1.5 mi Calm Calm - N/A   Overcast
2:29 AM 9.0 °F 2.4 °F 7.0 °F 92% 30.51 in 3.0 mi SSE 3.5 mph - N/A   Overcast
2:38 AM 8.1 °F - 5.0 °F 87% 30.51 in 3.0 mi Calm Calm - N/A   Overcast
2:53 AM 10.0 °F - 7.0 °F 87% 30.67 in 2.0 mi Calm Calm - N/A   Overcast
3:12 AM 10.0 °F 3.6 °F 6.1 °F 84% 30.52 in 2.0 mi West 3.5 mph - N/A   Overcast
3:34 AM 10.0 °F - 7.0 °F 87% 30.52 in 2.0 mi Calm Calm - N/A   Overcast
3:53 AM 12.0 °F - 8.1 °F 84% 30.67 in 1.5 mi Calm Calm - 0.00 in Snow Light Snow
4:16 AM 12.0 °F 5.9 °F 8.1 °F 84% 30.52 in 2.0 mi ESE 3.5 mph - 0.00 in   Overcast
4:53 AM 12.0 °F 5.9 °F 7.0 °F 80% 30.68 in 2.5 mi SSE 3.5 mph - 0.00 in   Overcast
5:53 AM 12.0 °F 4.1 °F 8.1 °F 84% 30.70 in 2.0 mi SE 4.6 mph - N/A   Overcast
6:53 AM 10.9 °F 4.7 °F 7.0 °F 84% 30.71 in 2.0 mi ESE 3.5 mph - N/A   Mostly Cloudy
7:51 AM 10.4 °F 4.0 °F 6.8 °F 85% 30.55 in 1.5 mi SE 3.5 mph - N/A   Overcast
7:53 AM 10.9 °F 4.7 °F 8.1 °F 88% 30.74 in 1.2 mi SE 3.5 mph - N/A   Overcast
8:53 AM 12.0 °F - 10.0 °F 92% 30.75 in 1.0 mi Calm Calm - N/A   Overcast
9:53 AM 15.1 °F - 12.0 °F 88% 30.76 in 1.0 mi Calm Calm - N/A   Overcast
10:39 AM 16.0 °F 10.4 °F 12.0 °F 84% 30.59 in 2.0 mi SE 3.5 mph - N/A   Scattered Clouds
10:53 AM 16.0 °F - 12.9 °F 88% 30.76 in 2.0 mi Calm Calm - N/A   Scattered Clouds
11:53 AM 19.9 °F - 14.0 °F 78% 30.71 in 2.0 mi Calm Calm - N/A   Haze
12:53 PM 19.0 °F 10.0 °F 12.0 °F 74% 30.72 in 2.0 mi North 6.9 mph - 0.00 in   Haze
1:34 PM 19.9 °F 11.1 °F 12.9 °F 74% 30.54 in 3.0 mi North 6.9 mph - N/A   Haze
1:53 PM 19.4 °F 10.4 °F 12.2 °F 74% 30.69 in 3.0 mi NNW 6.9 mph - N/A   Haze
2:53 PM 21.0 °F 13.4 °F 12.9 °F 71% 30.67 in 3.0 mi North 5.8 mph - N/A   Haze
3:53 PM 19.9 °F 12.1 °F 12.0 °F 71% 30.66 in 3.0 mi North 5.8 mph - N/A   Haze
4:03 PM 19.9 °F 12.1 °F 12.0 °F 71% 30.50 in 2.5 mi North 5.8 mph - N/A   Haze
4:29 PM 19.0 °F 11.1 °F 12.0 °F 74% 30.50 in 3.0 mi NNW 5.8 mph - N/A   Haze
4:53 PM 17.1 °F 6.6 °F 10.9 °F 77% 30.66 in 2.5 mi NW 8.1 mph - N/A   Haze
5:30 PM 15.1 °F 4.2 °F 9.0 °F 77% 30.51 in 3.0 mi North 8.1 mph - N/A   Haze
5:39 PM 14.0 °F 3.9 °F 9.0 °F 80% 30.51 in 2.5 mi North 6.9 mph - N/A   Haze
5:51 PM 12.2 °F 2.9 °F 8.6 °F 85% 30.51 in 4.0 mi North 5.8 mph - N/A   Haze
5:53 PM 12.9 °F 3.8 °F 8.1 °F 81% 30.68 in 4.0 mi North 5.8 mph - N/A   Haze
6:36 PM 10.9 °F 0.2 °F 8.1 °F 88% 30.51 in 2.5 mi NNW 6.9 mph - N/A   Partly Cloudy
6:53 PM 10.0 °F -1.9 °F 7.0 °F 87% 30.69 in 3.0 mi North 8.1 mph - N/A   Partly Cloudy
7:09 PM 10.0 °F -0.9 °F 7.0 °F 87% 30.51 in 2.5 mi NNW 6.9 mph - N/A   Partly Cloudy
7:30 PM 10.9 °F 0.2 °F 8.1 °F 88% 30.51 in 3.0 mi NNW 6.9 mph - N/A   Partly Cloudy
7:51 PM 10.4 °F -0.4 °F 8.6 °F 92% 30.51 in 2.5 mi North 6.9 mph - N/A   Partly Cloudy
7:53 PM 10.0 °F -0.9 °F 7.0 °F 87% 30.69 in 3.0 mi North 6.9 mph - N/A   Partly Cloudy
8:03 PM 10.0 °F 0.4 °F 8.1 °F 92% 30.51 in 2.0 mi North 5.8 mph - N/A   Partly Cloudy
8:14 PM 10.0 °F -0.9 °F 8.1 °F 92% 30.51 in 1.0 mi North 6.9 mph - N/A   Partly Cloudy
8:28 PM 10.0 °F -0.9 °F 8.1 °F 92% 30.51 in 2.0 mi North 6.9 mph - N/A   Partly Cloudy
8:53 PM 8.1 °F -0.5 °F 6.1 °F 92% 30.70 in 2.0 mi NNW 4.6 mph - N/A   Partly Cloudy
9:04 PM 9.0 °F -0.9 °F 7.0 °F 92% 30.52 in 1.8 mi NNW 5.8 mph - N/A   Partly Cloudy
9:36 PM 8.1 °F -3.2 °F 6.1 °F 92% 30.52 in 2.0 mi North 6.9 mph - N/A   Partly Cloudy
9:43 PM 8.1 °F -2.0 °F 6.1 °F 92% 30.52 in 1.8 mi North 5.8 mph - N/A   Partly Cloudy
9:53 PM 6.8 °F -5.9 °F 5.0 °F 92% 30.52 in 2.0 mi North 8.1 mph - N/A   Partly Cloudy
10:00 PM 6.1 °F -6.8 °F 3.9 °F 91% 30.52 in 1.0 mi North 8.1 mph - N/A   Mostly Cloudy
10:11 PM 8.1 °F -3.2 °F 5.0 °F 87% 30.52 in 2.0 mi North 6.9 mph - N/A   Overcast
10:41 PM 10.9 °F 4.7 °F 8.1 °F 88% 30.52 in 3.0 mi ENE 3.5 mph - N/A   Overcast
10:53 PM 12.0 °F 4.1 °F 8.1 °F 84% 30.69 in 3.0 mi North 4.6 mph - N/A   Overcast
11:53 PM 12.9 °F 6.9 °F 10.0 °F 88% 30.66 in 3.0 mi WSW 3.5 mph - N/A   Overcast